Location: Heilbronn
(49.1548°N, 9.2780°E)
Time: 20:22:58
(UTC+02:00)

ISS - Visible Passes

Search period start: 25 September 2020 00:00
Search period end: 05 October 2020 00:00
Orbit: 419 x 420 km, 51.6° (Epoch: 25 September)

Date Brightness Start Highest point End Pass type
(mag) Time Alt. Az. Time Alt. Az. Time Alt. Az.
25 Sep -3.2 20:58:02 10° W 21:01:22 53° N 21:02:10 41° NE visible
25 Sep -0.3 22:35:00 10° WNW 22:35:07 11° WNW 22:35:07 11° WNW visible
26 Sep -3.3 20:10:34 10° W 20:13:54 56° N 20:16:31 15° ENE visible
26 Sep -1.8 21:47:35 10° WNW 21:49:29 30° WNW 21:49:29 30° WNW visible
27 Sep -3.6 21:00:09 10° WNW 21:03:30 60° N 21:03:50 56° NE visible
28 Sep -3.3 20:12:42 10° WNW 20:16:01 55° N 20:18:10 20° ENE visible
28 Sep -1.5 21:49:35 10° WNW 21:51:08 25° WNW 21:51:08 25° WNW visible
29 Sep -3.8 21:02:08 10° WNW 21:05:29 87° NNW 21:05:29 87° NNW visible
30 Sep -3.7 20:14:40 10° WNW 20:18:04 71° NNE 20:19:50 25° E visible
30 Sep -1.1 21:51:39 10° W 21:52:48 18° W 21:52:48 18° W visible
01 Oct -3.5 19:27:12 10° WNW 19:30:34 60° N 19:33:55 10° E visible
01 Oct -3.1 21:04:05 10° WNW 21:07:12 48° SW 21:07:12 48° SW visible
02 Oct -3.6 20:16:35 10° WNW 20:19:57 70° SSW 20:21:38 27° SE visible
02 Oct -0.6 21:54:11 10° W 21:54:36 12° WSW 21:54:36 12° WSW visible
03 Oct -3.7 19:29:06 10° WNW 19:32:30 88° NNE 19:35:53 10° ESE visible
03 Oct -1.9 21:06:16 10° W 21:09:01 23° SW 21:09:05 23° SW visible
04 Oct -2.4 20:18:34 10° W 20:21:40 34° SSW 20:23:39 18° SSE visible
